Wind_Speed
16 16 16 15 15 15 14 13 13 13 12 11 9 9 9 10 11 11 12 13 13 14 13 13 12 11 11 10 9 8 7 7 6 6 5 5 5 4 3 3 2 2 1
15 16 15 14 14 14 14 13 12 12 11 9 8 8 9 10 11 11 11 12 13 14 14 13 13 12 12 11 10 9 8 8 7 7 7 6 5 5 5 4 4 3 3
17 15 14 13 13 13 14 13 11 12 11 9 8 9 8 9 10 11 12 13 14 15 15 14 14 13 12 12 11 10 10 9 8 8 7 7 6 6 6 6 5 5 5
17 15 14 13 13 13 13 12 11 11 10 9 9 9 9 9 9 10 11 14 15 16 16 15 15 14 14 13 12 12 11 11 10 10 9 9 8 8 8 7 7 7 7
16 15 14 13 13 13 13 12 11 11 10 10 9 9 9 9 10 10 12 13 15 15 16 16 16 16 15 14 14 14 13 12 12 11 11 10 10 9 9 9 9 9 9
16 14 12 12 12 12 12 11 10 10 10 9 9 9 9 9 10 11 12 13 14 15 15 16 16 17 17 16 16 15 15 14 13 13 13 12 12 12 12 11 11 11 11
15 13 12 11 11 11 11 10 9 10 9 9 9 9 9 10 11 12 13 14 15 15 16 16 16 17 18 18 17 16 16 15 15 14 14 14 14 14 13 13 13 13 14
13 13 11 10 10 10 10 9 10 9 9 9 9 10 10 10 11 12 13 14 15 16 17 17 16 17 18 19 19 18 18 17 16 16 16 16 16 16 16 16 16 16 16
12 11 10 10 9 9 9 9 9 9 8 8 9 9 10 11 12 13 14 14 15 16 17 18 17 18 20 20 20 20 20 19 18 18 18 18 18 18 19 19 19 19 19
12 10 9 9 9 8 9 8 8 7 6 7 8 9 10 10 12 12 13 14 14 15 16 17 18 19 20 21 21 21 21 21 21 21 20 21 21 20 21 21 21 21 22
12 11 9 9 9 9 9 9 8 7 7 7 8 9 10 10 10 12 13 14 15 15 16 17 18 19 21 21 22 22 23 23 22 22 22 22 22 22 22 22 23 23 23
13 12 11 10 9 9 9 8 7 7 7 8 8 9 9 10 10 11 12 14 16 17 18 18 19 19 20 22 22 22 23 23 23 22 23 23 23 23 23 23 24 25 25
14 12 12 11 11 10 9 8 7 7 8 9 9 9 10 10 11 12 14 15 16 18 18 18 18 19 20 21 20 21 21 21 22 22 23 24 25 25 25 25 25 25 26
14 13 13 13 12 11 10 9 9 8 9 9 9 10 10 11 12 13 14 15 16 17 18 18 18 18 19 19 19 20 21 21 22 22 22 24 24 25 25 26 26 27 28
15 15 15 14 13 12 11 11 11 11 10 10 10 10 11 11 12 13 13 14 15 16 16 17 17 18 19 19 20 20 21 21 22 22 23 24 24 25 25 27 28 29 30
17 16 16 15 15 14 14 14 13 13 12 12 12 12 12 13 13 13 14 14 15 15 15 15 16 17 18 19 20 20 21 22 23 24 25 25 26 27 27 28 29 31 32
18 18 17 17 16 16 16 15 15 15 15 15 15 14 14 14 14 14 14 14 15 15 16 17 17 18 18 19 20 21 22 24 25 25 26 26 27 28 29 29 30 32 33
20 19 19 18 18 18 18 18 18 18 17 17 17 16 16 16 16 16 16 16 16 16 17 17 18 19 20 20 21 22 24 25 26 26 26 27 28 28 29 30 31 32 34
22 21 21 20 20 21 21 21 21 21 20 20 19 19 18 18 18 18 18 18 18 18 18 18 19 20 21 23 24 24 26 27 28 28 28 29 30 30 30 32 33 34 36
24 24 23 23 23 23 23 23 23 23 22 22 21 20 20 20 20 20 20 20 20 19 19 20 21 22 24 25 25 26 27 28 29 29 30 31 31 31 32 33 35 36 37
25 25 25 25 25 25 25 25 25 25 25 24 24 23 22 22 22 22 22 22 22 21 21 22 23 24 25 26 27 28 29 29 28 28 29 30 31 32 33 35 37 38 39
27 26 26 27 27 27 27 26 26 26 26 26 25 25 24 24 23 23 23 22 22 22 22 23 24 25 26 26 27 27 28 28 28 28 29 31 32 33 35 36 38 40 40
29 28 28 28 28 28 28 28 27 27 27 26 26 25 25 25 24 23 23 23 23 24 25 25 25 26 26 26 26 27 27 28 29 29 29 31 33 35 36 38 39 41 41
31 30 30 30 30 29 29 29 28 29 28 28 27 26 26 26 25 24 25 25 25 26 26 27 26 26 26 26 26 26 27 28 29 30 32 33 35 37 38 39 40 40 41
31 31 30 30 30 30 29 28 28 28 27 27 27 27 26 26 26 25 25 25 26 27 27 26 25 25 26 26 27 28 30 31 32 33 35 36 37 37 38 39 40 40 40
31 31 30 30 29 29 28 27 27 27 26 26 26 26 26 25 25 25 25 25 26 26 26 26 26 26 27 29 30 30 30 31 33 35 36 36 36 37 38 38 38 39 40
Wind_Direction
310 312 310 306 306 308 308 309 310 311 310 303 293 269 249 235 230 226 220 219 219 219 222 221 220 221 224 227 229 231 231 230 227 223 224 228 236 237 235 233 230 237 258
307 310 307 306 307 308 308 308 306 307 308 300 289 276 256 240 231 222 225 221 216 216 218 221 223 223 226 229 230 231 234 234 232 229 230 234 242 244 244 245 247 252 262
305 307 305 306 307 306 309 307 303 304 303 294 285 275 262 243 235 231 234 226 222 219 219 222 225 226 229 232 230 234 235 236 236 235 237 238 242 246 249 254 257 262 269
307 309 305 302 303 305 308 306 299 298 296 288 279 269 262 246 240 236 232 227 223 221 223 224 228 229 231 232 232 235 237 240 242 242 243 245 248 252 255 260 261 265 271
305 306 303 300 302 305 307 304 298 292 288 284 277 272 263 250 242 236 232 227 221 220 225 227 231 233 233 234 234 237 240 244 246 246 246 250 255 257 259 264 265 268 274
305 305 302 302 302 304 306 302 293 288 285 280 272 269 259 246 240 239 232 226 224 225 228 230 234 235 236 237 236 239 242 246 247 247 249 254 258 259 261 264 267 270 276
303 304 300 301 303 303 304 299 295 287 282 275 268 264 257 247 242 240 233 231 229 229 231 233 236 236 238 240 241 241 244 246 246 247 250 255 259 261 263 265 267 270 275
303 307 301 297 301 304 305 302 299 294 285 273 266 264 259 249 244 241 237 235 234 234 234 237 241 240 240 242 243 244 247 246 247 249 253 257 260 261 262 265 268 271 274
302 305 300 299 302 305 307 304 301 295 286 273 265 265 264 252 245 245 244 243 240 240 239 240 244 243 242 242 243 244 246 248 249 252 255 259 261 263 264 266 270 273 275
300 299 300 305 306 306 309 306 301 295 289 279 271 269 266 258 252 252 249 247 245 243 243 244 246 244 242 242 245 247 248 249 251 254 257 260 261 264 266 269 272 274 276
292 296 298 302 306 311 315 311 307 296 286 282 278 275 270 264 259 255 252 250 248 245 245 247 250 250 246 244 245 248 249 251 252 255 258 259 261 264 268 270 271 274 276
290 294 294 298 303 307 312 315 313 303 289 284 281 278 273 269 264 258 256 256 252 249 251 252 252 252 249 247 248 251 252 254 256 257 258 260 262 264 267 270 272 274 277
290 290 289 294 298 301 304 310 314 312 302 292 285 280 278 273 270 266 264 264 259 255 254 256 255 253 252 252 252 254 255 255 256 259 261 263 264 266 269 271 273 275 278
284 285 287 289 294 296 298 302 306 309 308 300 292 290 286 281 279 276 272 270 267 262 258 258 258 259 256 255 256 257 259 259 261 263 265 266 268 269 270 272 274 277 278
279 280 282 284 288 290 292 294 298 301 305 306 303 299 292 289 290 289 281 276 273 268 261 259 260 260 258 258 259 260 260 261 261 263 265 267 269 270 272 273 275 277 278
277 279 280 280 282 284 287 289 291 295 298 301 302 301 296 293 292 292 285 278 274 270 263 262 261 263 262 261 260 261 262 263 265 266 267 269 270 272 273 275 276 278 279
275 277 278 277 277 279 283 286 289 290 292 294 297 296 295 293 290 289 286 281 277 272 268 267 263 264 264 263 264 264 266 267 267 270 271 272 274 277 278 280 280 280 281
274 274 274 274 275 276 278 282 286 287 288 289 291 293 292 291 288 286 284 280 278 276 272 270 268 268 268 268 269 271 270 271 272 273 274 275 278 280 280 281 283 284 284
273 273 273 273 274 275 277 280 282 285 287 289 290 290 290 288 286 286 284 280 278 277 275 275 272 272 271 271 271 273 273 273 273 274 275 276 278 279 280 282 284 286 286
271 272 272 273 275 276 277 279 280 282 284 285 287 288 287 286 285 285 283 280 279 278 276 275 276 274 273 275 276 276 276 276 277 278 277 277 278 280 281 283 285 287 288
270 271 272 273 274 275 276 278 280 280 281 281 283 285 286 285 285 284 284 281 279 277 277 276 276 276 278 280 280 279 279 280 283 281 279 280 281 282 285 287 288 289 290
269 271 271 272 272 274 275 277 278 279 279 280 281 282 283 283 283 283 283 280 279 279 279 279 279 280 280 280 280 280 281 281 281 282 283 283 284 286 288 288 289 290 291
269 270 270 272 273 274 275 277 277 276 278 280 280 281 282 283 282 281 281 279 278 279 281 282 282 281 280 280 282 282 282 284 284 284 285 286 287 288 289 291 293 292 292
268 269 269 271 273 274 275 276 275 276 277 278 279 280 280 280 279 279 280 280 280 280 281 282 281 282 281 282 282 283 284 285 285 285 287 288 288 289 291 293 293 294 294
266 267 268 270 271 272 274 275 275 276 276 276 277 279 278 277 278 279 280 281 281 281 280 280 279 279 280 281 282 282 282 283 285 288 289 290 291 292 293 294 294 295 297
265 266 267 269 270 271 272 274 275 275 276 276 275 276 278 278 279 281 280 281 281 281 280 278 280 280 281 282 282 283 285 287 287 289 290 292 293 294 296 297 298 298 298
Height
5874 5872 5871 5869 5868 5867 5866 5865 5865 5864 5863 5862 5862 5863 5864 5866 5868 5870 5871 5873 5876 5878 5880 5883 5885 5887 5889 5890 5892 5893 5894 5895 5896 5897 5897 5898 5898 5899 5900 5900 5901 5901 5901
5872 5870 5868 5867 5866 5865 5864 5864 5863 5862 5861 5861 5861 5862 5862 5864 5866 5867 5869 5871 5874 5876 5879 5881 5883 5885 5887 5889 5890 5892 5893 5894 5895 5895 5896 5897 5898 5898 5899 5900 5900 5900 5900
5869 5868 5866 5864 5864 5863 5863 5862 5861 5861 5860 5859 5859 5860 5861 5862 5864 5865 5867 5870 5872 5874 5877 5879 5881 5883 5885 5887 5889 5890 5891 5892 5893 5894 5895 5896 5897 5897 5898 5898 5899 5899 5899
5867 5865 5864 5863 5862 5861 5861 5860 5859 5859 5858 5858 5858 5858 5859 5860 5862 5863 5865 5868 5870 5872 5875 5877 5879 5881 5883 5885 5887 5888 5890 5891 5892 5893 5893 5895 5895 5896 5896 5897 5897 5898 5898
5864 5863 5862 5861 5860 5860 5858 5857 5857 5856 5856 5856 5856 5857 5858 5859 5860 5862 5863 5865 5867 5870 5872 5874 5876 5879 5881 5882 5884 5886 5888 5889 5890 5891 5891 5892 5893 5894 5895 5895 5896 5896 5896
5862 5861 5860 5860 5859 5857 5856 5855 5855 5854 5854 5854 5855 5855 5856 5857 5858 5860 5861 5863 5865 5868 5870 5871 5874 5876 5878 5880 5882 5883 5885 5886 5887 5888 5889 5890 5891 5891 5892 5893 5893 5893 5894
5861 5859 5859 5858 5857 5856 5855 5853 5853 5852 5852 5852 5853 5853 5854 5855 5856 5858 5859 5861 5863 5865 5867 5869 5871 5873 5875 5877 5879 5880 5882 5883 5884 5885 5886 5887 5888 5889 5889 5890 5890 5890 5891
5859 5858 5857 5856 5855 5854 5853 5852 5851 5850 5850 5850 5850 5851 5852 5853 5854 5855 5857 5858 5860 5862 5864 5866 5868 5870 5871 5873 5875 5877 5879 5880 5881 5882 5883 5884 5885 5886 5886 5887 5887 5887 5887
5857 5856 5855 5854 5854 5853 5851 5850 5849 5848 5848 5848 5848 5849 5850 5850 5852 5853 5854 5855 5857 5859 5861 5863 5864 5866 5868 5870 5871 5873 5875 5876 5877 5879 5880 5881 5881 5882 5882 5883 5883 5883 5883
5855 5854 5854 5853 5853 5851 5850 5849 5848 5847 5847 5847 5847 5848 5848 5848 5849 5850 5851 5853 5854 5856 5858 5859 5861 5862 5864 5866 5867 5869 5870 5872 5873 5874 5875 5876 5877 5877 5878 5878 5878 5878 5878
5853 5853 5852 5852 5852 5851 5849 5848 5847 5846 5846 5846 5846 5846 5846 5846 5847 5848 5849 5850 5852 5853 5854 5855 5857 5858 5860 5861 5863 5864 5865 5867 5868 5869 5870 5871 5872 5873 5873 5873 5873 5873 5873
5852 5851 5851 5851 5850 5850 5848 5847 5846 5845 5845 5845 5845 5845 5845 5845 5845 5846 5847 5848 5849 5850 5851 5852 5853 5854 5855 5857 5858 5859 5860 5862 5863 5864 5865 5866 5866 5867 5868 5868 5868 5868 5867
5850 5850 5849 5849 5849 5848 5847 5847 5846 5845 5844 5844 5844 5843 5843 5843 5843 5844 5844 5845 5845 5846 5847 5848 5849 5850 5851 5852 5853 5854 5856 5857 5858 5859 5860 5861 5861 5862 5862 5862 5862 5861 5861
5848 5848 5847 5847 5847 5846 5846 5846 5845 5844 5843 5843 5842 5841 5841 5841 5841 5841 5842 5842 5842 5842 5843 5844 5845 5846 5847 5848 5849 5850 5851 5852 5853 5854 5854 5855 5855 5856 5856 5856 5856 5855 5855
5846 5846 5845 5845 5845 5845 5844 5844 5843 5843 5842 5841 5840 5840 5839 5839 5839 5839 5839 5839 5839 5840 5840 5841 5841 5842 5843 5843 5844 5845 5846 5847 5848 5848 5849 5849 5849 5849 5849 5849 5849 5848 5847
5843 5843 5843 5842 5842 5842 5842 5842 5841 5841 5840 5839 5839 5838 5837 5837 5836 5836 5836 5836 5836 5836 5836 5837 5837 5838 5839 5839 5840 5840 5841 5842 5842 5843 5843 5843 5843 5843 5842 5842 5841 5840 5839
5840 5839 5839 5839 5839 5839 5839 5839 5838 5838 5837 5837 5836 5835 5834 5834 5833 5833 5833 5832 5832 5832 5832 5833 5833 5834 5834 5834 5835 5835 5836 5836 5837 5837 5837 5836 5836 5836 5835 5834 5833 5832 5831
5836 5836 5835 5836 5836 5836 5836 5835 5835 5834 5834 5834 5833 5832 5831 5830 5830 5829 5829 5829 5829 5828 5828 5828 5828 5828 5829 5829 5830 5830 5830 5830 5830 5830 5830 5829 5829 5829 5827 5826 5825 5824 5822
5831 5831 5831 5831 5831 5831 5831 5831 5831 5830 5830 5830 5829 5828 5827 5827 5826 5826 5825 5825 5824 5824 5824 5824 5824 5824 5824 5824 5824 5824 5824 5824 5824 5823 5823 5822 5821 5821 5819 5818 5817 5815 5813
5826 5826 5826 5826 5826 5826 5826 5826 5826 5826 5825 5825 5824 5824 5823 5822 5822 5822 5821 5820 5820 5819 5819 5819 5819 5819 5819 5819 5819 5819 5818 5817 5817 5816 5815 5814 5813 5812 5811 5809 5807 5805 5803
5820 5820 5820 5820 5820 5820 5820 5820 5820 5820 5820 5820 5819 5819 5818 5817 5817 5816 5815 5815 5814 5814 5813 5814 5813 5813 5813 5813 5813 5812 5811 5810 5809 5807 5806 5806 5804 5803 5801 5800 5798 5795 5793
5813 5814 5814 5814 5814 5814 5814 5814 5814 5814 5814 5813 5813 5813 5812 5812 5811 5810 5810 5809 5808 5808 5808 5808 5807 5807 5807 5806 5805 5805 5804 5803 5802 5800 5799 5798 5796 5794 5792 5790 5787 5784 5781
5806 5807 5807 5807 5807 5807 5807 5808 5807 5807 5807 5807 5807 5806 5806 5806 5805 5805 5804 5803 5803 5803 5802 5801 5801 5800 5800 5799 5798 5797 5796 5795 5794 5793 5791 5790 5788 5786 5783 5780 5777 5774 5770
5799 5799 5800 5800 5800 5800 5800 5800 5800 5800 5800 5800 5800 5799 5799 5799 5798 5798 5798 5797 5797 5796 5795 5794 5794 5793 5792 5792 5791 5790 5789 5788 5786 5785 5783 5781 5779 5776 5773 5770 5766 5762 5759
5792 5792 5792 5793 5793 5793 5793 5793 5793 5793 5792 5792 5792 5792 5792 5791 5791 5791 5791 5790 5790 5789 5788 5787 5786 5786 5785 5784 5784 5783 5781 5779 5778 5776 5774 5771 5769 5766 5762 5759 5755 5751 5747
5784 5784 5785 5785 5785 5786 5786 5786 5785 5785 5785 5785 5785 5785 5784 5784 5784 5784 5783 5782 5782 5781 5781 5780 5780 5779 5778 5776 5775 5774 5772 5771 5769 5767 5764 5762 5758 5755 5752 5748 5744 5741 5736